N5AEH Weather Reports


time (UTC)temp
F
wind
direction
speed
knots
gust
knots
rain 1hr
in
rain 24hr
in
rain mn
in
humidity
%
barometer
mb
20260504202140 70 238 0.0 0.0 0.00 0.00 0.00 36 1008.6
20260504201637 71 229 0.9 0.9 0.00 0.00 0.00 35 1008.5
20260504201135 70 227 0.9 0.9 0.00 0.00 0.00 37 1008.4
20260504200631 70 237 0.0 0.9 0.00 0.00 0.00 35 1008.8
20260504200128 71 255 1.7 1.7 0.00 0.00 0.00 36 1008.4
20260504195624 73 221 1.7 1.7 0.00 0.00 0.00 35 1008.6
20260504195120 75 236 0.9 1.7 0.00 0.00 0.00 34 1008.9
20260504194617 74 218 0.0 0.9 0.00 0.00 0.00 34 1008.6
20260504194113 73 230 0.9 1.7 0.00 0.00 0.00 33 1008.7
20260504193609 74 214 0.0 0.9 0.00 0.00 0.00 34 1008.9
20260504193108 73 237 1.7 1.7 0.00 0.00 0.00 34 1008.9
20260504192606 71 233 0.0 0.0 0.00 0.00 0.00 38 1009.1
20260504192104 70 233 0.0 0.0 0.00 0.00 0.00 38 1008.9
20260504191602 74 240 0.9 0.9 0.00 0.00 0.00 35 1009.2
20260504191057 75 226 0.0 0.9 0.00 0.00 0.00 34 1008.9
20260504190554 73 226 0.9 0.9 0.00 0.00 0.00 34 1009.3
20260504190050 76 230 2.6 2.6 0.00 0.00 0.00 34 1009.0
20260504185547 75 250 0.9 1.7 0.00 0.00 0.00 33 1009.3
20260504185044 75 286 1.7 1.7 0.00 0.00 0.00 36 1009.1
20260504184539 75 255 0.0 0.0 0.00 0.00 0.00 34 1009.2
20260504184035 73 227 0.9 0.9 0.00 0.00 0.00 35 1009.3
20260504183532 73 223 2.6 4.3 0.00 0.00 0.00 34 1009.3
20260504183030 72 232 0.9 0.9 0.00 0.00 0.00 38 1009.4
20260504182527 70 218 0.9 0.9 0.00 0.00 0.00 40 1009.3
20260504182024 69 234 0.0 0.0 0.00 0.00 0.00 40 1009.5
20260504181521 70 212 0.9 1.7 0.00 0.00 0.00 38 1009.7
20260504181014 72 217 0.9 0.9 0.00 0.00 0.00 36 1009.7
20260504180512 71 229 0.0 0.0 0.00 0.00 0.00 37 1009.5
20260504180011 71 203 2.6 2.6 0.00 0.00 0.00 39 1009.5
20260504175508 69 230 0.0 0.9 0.00 0.00 0.00 42 1009.6
20260504175004 65 216 0.0 0.0 0.00 0.00 0.00 48 1009.6
20260504174502 61 224 0.0 0.0 0.00 0.00 0.00 55 1009.8
20260504173959 56 228 0.0 0.0 0.00 0.00 0.00 66 1010.0
20260504173455 56 228 0.0 0.0 0.00 0.00 0.00 70 1010.2
20260504172953 56 228 0.0 0.0 0.00 0.00 0.00 71 1010.3
20260504172448 56 228 0.0 0.0 0.00 0.00 0.00 67 1010.4
20260504171946 57 228 0.9 1.7 0.00 0.00 0.00 61 1010.3
20260504171443 58 222 0.0 0.0 0.00 0.00 0.00 63 1010.2
20260504170939 59 230 0.0 0.0 0.00 0.00 0.00 59 1010.1
20260504170436 59 237 0.0 0.0 0.00 0.00 0.00 54 1010.0
20260504160355 60 235 0.0 0.0 0.00 0.00 0.00 48 1010.1
20260504150820 65 236 0.0 0.9 0.00 0.00 0.00 42 1009.8
20260504150316 65 253 1.7 2.6 0.00 0.00 0.00 40 1009.9
20260504141246 61 226 0.9 1.7 0.00 0.00 0.00 45 1010.4
20260504140742 62 274 0.9 1.7 0.00 0.00 0.00 43 1010.7
20260504140238 63 231 0.0 0.9 0.00 0.00 0.00 43 1010.8
20260504130707 55 223 0.0 0.0 0.00 0.00 0.00 65 1011.3
20260504130203 55 223 0.0 0.0 0.00 0.00 0.00 63 1011.4
20260504120127 50 224 0.0 0.0 0.00 0.00 0.00 66 1012.2
20260504110554 36 223 0.0 0.0 0.00 0.00 0.00 90 1012.4
20260504100516 34 223 0.0 0.0 0.00 0.00 0.00 91 1012.6
20260504081909 34 223 0.0 0.0 0.00 0.00 0.00 90 1012.4
20260504081406 34 223 0.0 0.0 0.00 0.00 0.00 90 1012.4
20260504080902 34 223 0.0 0.0 0.00 0.00 0.00 90 1012.4
20260504080359 35 223 0.0 0.0 0.00 0.00 0.00 90 1012.4
20260504070326 31 223 0.0 0.0 0.00 0.00 0.00 91 1012.3
20260504060247 30 223 0.0 0.0 0.00 0.00 0.00 92 1012.1
20260504050715 29 223 0.0 0.0 0.00 0.00 0.00 92 1012.1
20260504050213 29 223 0.0 0.0 0.00 0.00 0.00 92 1012.2
20260504045710 28 223 0.0 0.0 0.00 0.00 0.00 92 1012.1
20260504045209 28 223 0.0 0.0 0.00 0.00 0.00 91 1012.1
20260504044708 28 223 0.0 0.0 0.00 0.00 0.00 91 1012.1
20260504044205 28 223 0.0 0.0 0.00 0.00 0.00 91 1012.2
20260504043702 28 223 0.0 0.0 0.00 0.00 0.00 91 1012.1
20260504043158 28 223 0.0 0.0 0.00 0.00 0.00 91 1012.3
20260504042655 28 223 0.0 0.0 0.00 0.00 0.00 91 1012.3
20260504042152 28 223 0.0 0.0 0.00 0.00 0.00 90 1012.4
20260504041648 28 223 0.0 0.0 0.00 0.00 0.00 90 1012.3
20260504041144 29 223 0.0 0.0 0.00 0.00 0.00 90 1012.3
20260504040641 29 223 0.0 0.0 0.00 0.00 0.00 89 1012.3
20260504040138 29 223 0.0 0.0 0.00 0.00 0.00 89 1012.3
20260504035635 29 223 0.0 0.0 0.00 0.01 0.01 89 1012.2
20260504035131 29 223 0.0 0.0 0.00 0.01 0.01 89 1012.3
20260504034629 30 223 0.0 0.0 0.00 0.01 0.01 89 1012.1
20260504034126 30 223 0.0 0.0 0.00 0.01 0.01 88 1012.0
20260504033624 30 223 0.0 0.0 0.00 0.01 0.01 88 1012.1
20260504033121 30 223 0.0 0.0 0.00 0.01 0.01 88 1012.0
20260504032618 30 223 0.0 0.0 0.00 0.01 0.01 88 1011.9
20260504032115 30 223 0.0 0.0 0.00 0.01 0.01 88 1012.0
20260504031612 30 223 0.0 0.0 0.00 0.01 0.01 88 1012.0
20260504031108 30 223 0.0 0.0 0.00 0.01 0.01 88 1012.2
20260504030605 31 223 0.0 0.0 0.00 0.01 0.01 87 1012.2
20260504030101 31 223 0.0 0.0 0.00 0.01 0.01 87 1012.2
20260504025558 31 223 0.0 0.0 0.00 0.01 0.01 86 1012.1
20260504025056 31 223 0.0 0.0 0.00 0.01 0.01 86 1012.0
20260504024553 31 223 0.0 0.0 0.00 0.01 0.01 87 1012.3
20260504024049 31 223 0.0 0.0 0.00 0.01 0.01 86 1012.1
20260504023546 31 223 0.0 0.0 0.00 0.01 0.01 86 1012.1
20260504023042 31 223 0.0 0.0 0.00 0.01 0.01 86 1012.2
20260504022538 32 223 0.0 0.0 0.00 0.01 0.01 85 1012.2
20260504022034 32 223 0.0 0.0 0.00 0.01 0.01 85 1012.4
20260504021532 33 223 0.0 0.0 0.00 0.01 0.01 84 1012.4
20260504021028 33 223 0.0 0.0 0.00 0.01 0.01 84 1012.4
20260504020525 33 223 0.0 0.0 0.00 0.01 0.01 83 1012.2
20260504020022 34 223 0.0 0.0 0.00 0.01 0.01 82 1012.1
20260504015518 34 223 0.0 0.0 0.00 0.01 0.01 82 1012.2
20260504015014 34 223 0.0 0.0 0.00 0.01 0.01 82 1012.2
20260504014510 35 223 0.0 0.0 0.00 0.01 0.01 81 1012.3
20260504014008 35 223 0.0 0.0 0.00 0.01 0.01 81 1012.1
20260504013506 35 223 0.0 0.0 0.00 0.01 0.01 80 1012.0
20260504013001 36 223 0.0 0.0 0.00 0.01 0.01 79 1012.0
20260504012500 36 223 0.0 0.0 0.00 0.01 0.01 79 1012.0
20260504011957 36 223 0.0 0.0 0.00 0.01 0.01 79 1012.2
20260504011453 36 223 0.0 0.0 0.00 0.01 0.01 79 1011.8
20260504010949 36 223 0.0 0.0 0.00 0.01 0.01 78 1011.9
20260504010446 37 223 0.0 0.0 0.00 0.01 0.01 78 1011.8
20260504005942 37 223 0.0 0.0 0.00 0.01 0.01 77 1011.6
20260504005439 38 223 0.0 0.0 0.00 0.01 0.01 76 1011.7
20260504004936 38 223 0.0 0.0 0.00 0.01 0.01 74 1011.6
20260504004434 38 223 0.0 0.0 0.00 0.01 0.01 74 1011.7
20260504003930 39 223 0.0 0.0 0.00 0.01 0.01 74 1011.6
20260504003427 39 223 0.0 0.0 0.00 0.01 0.01 74 1011.5
20260504002924 39 223 0.0 0.0 0.00 0.01 0.01 73 1011.5
20260504002420 40 223 0.0 0.0 0.00 0.01 0.01 70 1011.3
20260504001918 40 223 0.0 0.0 0.00 0.01 0.01 70 1011.5
20260504001416 40 223 0.0 0.0 0.00 0.01 0.01 70 1011.1
20260504000912 41 223 0.0 0.0 0.00 0.01 0.01 68 1011.3
20260504000409 41 223 0.0 0.0 0.00 0.01 0.01 67 1011.3
20260503235906 41 223 0.0 0.0 0.00 0.01 0.01 65 1011.2
20260503235404 42 223 0.0 0.0 0.00 0.01 0.01 67 1011.0
20260503234901 42 223 0.0 0.0 0.00 0.01 0.01 67 1010.8
20260503234359 42 222 0.0 0.0 0.00 0.01 0.01 66 1011.0
20260503233856 42 222 0.0 0.0 0.00 0.01 0.01 65 1011.0
20260503233353 42 222 0.0 0.0 0.00 0.01 0.01 65 1010.8
20260503232849 43 221 0.0 0.0 0.00 0.01 0.01 65 1010.7
20260503232347 43 221 0.0 0.0 0.00 0.01 0.01 63 1010.8
20260503231845 44 220 0.0 0.0 0.00 0.01 0.01 62 1010.9
20260503231341 44 223 0.9 1.7 0.00 0.01 0.01 61 1010.5
20260503230837 44 220 0.0 0.0 0.00 0.01 0.01 64 1010.7
20260503230334 44 220 0.0 0.0 0.00 0.01 0.01 61 1010.8
20260503225833 44 217 0.0 0.0 0.00 0.01 0.01 60 1010.9
20260503225328 45 212 0.0 0.0 0.00 0.01 0.01 57 1010.4
20260503224824 45 230 0.0 0.9 0.00 0.01 0.01 56 1010.5
20260503224321 46 231 0.0 0.0 0.00 0.01 0.01 58 1010.5
20260503223819 46 232 0.0 0.0 0.00 0.01 0.01 57 1010.5
20260503223317 46 232 0.9 0.9 0.00 0.01 0.01 57 1010.4
20260503222812 46 230 0.0 0.0 0.00 0.01 0.01 55 1010.7
20260503222311 46 231 0.0 0.0 0.00 0.01 0.01 55 1010.5
20260503221809 46 224 0.0 0.0 0.00 0.01 0.01 57 1010.4
20260503221307 46 226 0.9 0.9 0.00 0.01 0.01 54 1010.3
20260503220802 47 226 1.7 2.6 0.00 0.01 0.01 52 1010.2
20260503220300 47 223 0.0 0.0 0.00 0.01 0.01 55 1010.3
20260503215756 48 220 0.0 0.0 0.00 0.01 0.01 54 1010.3
20260503215253 48 221 0.0 0.0 0.00 0.01 0.01 51 1010.2
20260503214751 48 143 0.0 0.9 0.00 0.01 0.01 51 1010.2
20260503214248 49 230 0.0 0.9 0.00 0.01 0.01 50 1010.3
20260503213746 49 252 0.9 1.7 0.00 0.01 0.01 49 1010.1
20260503213243 49 78 1.7 2.6 0.00 0.01 0.01 52 1010.3
20260503212740 50 207 0.9 1.7 0.00 0.01 0.01 49 1010.3
20260503212238 50 223 0.0 0.9 0.00 0.01 0.01 49 1010.2
20260503211735 50 224 0.0 0.0 0.00 0.01 0.01 51 1010.2
20260503211231 49 216 0.0 0.0 0.00 0.01 0.01 49 1010.5
20260503210726 49 207 0.9 1.7 0.00 0.01 0.01 48 1010.3
20260503210224 48 227 1.7 2.6 0.00 0.01 0.01 48 1010.2
20260503205719 48 226 0.0 0.0 0.00 0.01 0.01 53 1010.3
20260503205216 49 186 0.0 0.0 0.00 0.01 0.01 48 1010.2
20260503204712 49 234 0.0 0.0 0.00 0.01 0.01 48 1010.0
20260503204210 49 241 0.0 0.0 0.00 0.01 0.01 48 1009.9
20260503203707 49 240 0.0 0.9 0.00 0.01 0.01 48 1010.2
20260503203205 49 231 1.7 1.7 0.00 0.01 0.01 47 1010.0
20260503202701 48 238 0.0 0.0 0.00 0.01 0.01 51 1010.0